| time (UTC) | temp C | wind direction | speed KPH | gust KPH | rain 1hr cm | rain 24hr cm | rain mn cm | humidity % | barometer mb |
| 20260906180648 | 33 | 307 | 1.6 | 4.8 | 0.00 | 0.20 | 0.00 | 69 | 1009.0 |
| 20260906175647 | 32 | 313 | 1.6 | 3.2 | 0.00 | 0.20 | 0.00 | 69 | 1009.3 |
| 20260906174646 | 33 | 278 | 1.6 | 3.2 | 0.00 | 0.20 | 0.00 | 69 | 1009.3 |
| 20260906173614 | 33 | 281 | 1.6 | 4.8 | 0.00 | 0.20 | 0.00 | 67 | 1009.3 |
| 20260906172542 | 34 | 280 | 1.6 | 4.8 | 0.00 | 0.20 | 0.00 | 65 | 1009.3 |
| 20260906171541 | 33 | 247 | 3.2 | 6.4 | 0.00 | 0.20 | 0.00 | 67 | 1009.3 |
| 20260906170540 | 33 | 316 | 3.2 | 6.4 | 0.00 | 0.20 | 0.00 | 67 | 1009.6 |
| 20260906165539 | 32 | 193 | 3.2 | 6.4 | 0.00 | 0.20 | 0.00 | 69 | 1009.6 |
| 20260906164538 | 32 | 260 | 3.2 | 6.4 | 0.00 | 0.20 | 0.00 | 70 | 1009.6 |
| 20260906163435 | 32 | 255 | 0.0 | 6.4 | 0.00 | 0.20 | 0.00 | 71 | 1010.0 |
| 20260906162434 | 32 | 308 | 3.2 | 6.4 | 0.00 | 0.20 | 0.00 | 72 | 1010.0 |
| 20260906161402 | 32 | 311 | 3.2 | 8.0 | 0.00 | 0.20 | 0.00 | 70 | 1010.0 |
| 20260906160401 | 32 | 254 | 1.6 | 8.0 | 0.00 | 0.20 | 0.00 | 72 | 1010.3 |
| 20260906155401 | 32 | 260 | 1.6 | 4.8 | 0.00 | 0.20 | 0.00 | 73 | 1010.3 |
| 20260906154400 | 31 | 266 | 1.6 | 4.8 | 0.00 | 0.20 | 0.00 | 76 | 1010.3 |
| 20260906153359 | 31 | 290 | 1.6 | 4.8 | 0.00 | 0.20 | 0.00 | 77 | 1010.7 |
| 20260906152358 | 31 | 267 | 1.6 | 4.8 | 0.00 | 0.20 | 0.00 | 78 | 1010.7 |
| 20260906151357 | 31 | 285 | 1.6 | 4.8 | 0.00 | 0.20 | 0.00 | 79 | 1010.7 |
| 20260906150357 | 30 | 304 | 3.2 | 4.8 | 0.00 | 0.20 | 0.00 | 83 | 1010.7 |
| 20260906145356 | 30 | 264 | 1.6 | 4.8 | 0.00 | 0.20 | 0.00 | 83 | 1010.3 |
| 20260906144355 | 30 | 295 | 1.6 | 4.8 | 0.00 | 0.20 | 0.00 | 83 | 1010.7 |
| 20260906143355 | 30 | 252 | 1.6 | 4.8 | 0.00 | 0.20 | 0.00 | 86 | 1010.7 |
| 20260906142354 | 30 | 311 | 1.6 | 3.2 | 0.00 | 0.20 | 0.00 | 87 | 1010.7 |
| 20260906141353 | 30 | 248 | 1.6 | 4.8 | 0.00 | 0.20 | 0.00 | 88 | 1010.7 |
| 20260906140352 | 29 | 242 | 0.0 | 3.2 | 0.00 | 0.20 | 0.00 | 89 | 1010.6 |
| 20260906135351 | 29 | 305 | 1.6 | 3.2 | 0.00 | 0.20 | 0.00 | 90 | 1010.6 |
| 20260906134350 | 28 | 272 | 1.6 | 1.6 | 0.00 | 0.20 | 0.00 | 91 | 1010.6 |
| 20260906133349 | 28 | 236 | 1.6 | 1.6 | 0.00 | 0.20 | 0.00 | 90 | 1010.6 |
| 20260906132348 | 28 | 277 | 1.6 | 3.2 | 0.00 | 0.20 | 0.00 | 92 | 1010.6 |
| 20260906131347 | 28 | 276 | 1.6 | 1.6 | 0.00 | 0.20 | 0.00 | 93 | 1010.6 |
| 20260906130347 | 27 | 149 | 0.0 | 1.6 | 0.00 | 0.20 | 0.00 | 95 | 1010.6 |
| 20260906125315 | 26 | 264 | 1.6 | 1.6 | 0.00 | 0.20 | 0.00 | 96 | 1011.0 |
| 20260906124314 | 26 | 229 | 1.6 | 1.6 | 0.00 | 0.20 | 0.00 | 98 | 1010.6 |
| 20260906123313 | 25 | 160 | 0.0 | 0.0 | 0.00 | 0.20 | 0.00 | 100 | 1010.9 |
| 20260906122312 | 25 | 160 | 0.0 | 0.0 | 0.00 | 0.20 | 0.00 | 100 | 1010.9 |
| 20260906121240 | 24 | 160 | 0.0 | 1.6 | 0.00 | 0.20 | 0.00 | 100 | 1010.9 |
| 20260906120137 | 23 | 160 | 0.0 | 1.6 | 0.00 | 0.20 | 0.00 | 100 | 1010.6 |
| 20260906115136 | 23 | 161 | 0.0 | 0.0 | 0.00 | 0.20 | 0.00 | 100 | 1010.6 |
| 20260906114104 | 23 | 160 | 0.0 | 0.0 | 0.00 | 0.20 | 0.00 | 100 | 1010.6 |
| 20260906113103 | 23 | 160 | 0.0 | 0.0 | 0.00 | 0.20 | 0.00 | 99 | 1010.3 |
| 20260906112103 | 23 | 160 | 0.0 | 0.0 | 0.00 | 0.20 | 0.00 | 99 | 1010.3 |
| 20260906111102 | 23 | 160 | 0.0 | 0.0 | 0.00 | 0.20 | 0.00 | 99 | 1010.3 |
| 20260906105100 | 23 | 160 | 0.0 | 0.0 | 0.00 | 0.20 | 0.00 | 99 | 1009.9 |
| 20260906104059 | 23 | 160 | 0.0 | 0.0 | 0.00 | 0.20 | 0.00 | 99 | 1009.9 |
| 20260906103058 | 23 | 160 | 0.0 | 0.0 | 0.00 | 0.20 | 0.00 | 99 | 1009.6 |
| 20260906102057 | 23 | 160 | 0.0 | 0.0 | 0.00 | 0.20 | 0.00 | 99 | 1009.6 |
| 20260906101056 | 23 | 160 | 0.0 | 0.0 | 0.00 | 0.20 | 0.00 | 99 | 1009.6 |
| 20260906100056 | 23 | 161 | 0.0 | 0.0 | 0.00 | 0.20 | 0.00 | 99 | 1009.6 |
| 20260906095055 | 23 | 160 | 0.0 | 0.0 | 0.00 | 0.20 | 0.00 | 99 | 1009.3 |
| 20260906094023 | 23 | 160 | 0.0 | 0.0 | 0.00 | 0.20 | 0.00 | 99 | 1009.3 |
| 20260906093022 | 23 | 160 | 0.0 | 0.0 | 0.00 | 0.20 | 0.00 | 99 | 1008.9 |
| 20260906092021 | 23 | 160 | 0.0 | 0.0 | 0.00 | 0.20 | 0.00 | 99 | 1008.9 |
| 20260906091021 | 23 | 160 | 0.0 | 0.0 | 0.00 | 0.20 | 0.00 | 99 | 1008.9 |
| 20260906090020 | 23 | 160 | 0.0 | 0.0 | 0.00 | 0.20 | 0.00 | 99 | 1008.9 |
| 20260906085019 | 23 | 160 | 0.0 | 0.0 | 0.00 | 0.23 | 0.00 | 99 | 1008.9 |
| 20260906083947 | 23 | 160 | 0.0 | 0.0 | 0.00 | 0.23 | 0.00 | 99 | 1008.9 |
| 20260906082946 | 23 | 160 | 0.0 | 0.0 | 0.00 | 0.23 | 0.00 | 99 | 1008.9 |
| 20260906081914 | 23 | 160 | 0.0 | 0.0 | 0.00 | 0.23 | 0.00 | 99 | 1008.9 |
| 20260906080914 | 23 | 160 | 0.0 | 0.0 | 0.00 | 0.23 | 0.00 | 99 | 1008.6 |
| 20260906075842 | 23 | 160 | 0.0 | 0.0 | 0.00 | 0.23 | 0.00 | 99 | 1008.6 |
| 20260906074841 | 23 | 160 | 0.0 | 0.0 | 0.00 | 0.23 | 0.00 | 99 | 1008.9 |
| 20260906073840 | 23 | 160 | 0.0 | 0.0 | 0.00 | 0.23 | 0.00 | 99 | 1008.6 |
| 20260906072839 | 23 | 160 | 0.0 | 0.0 | 0.00 | 0.23 | 0.00 | 99 | 1008.9 |
| 20260906071838 | 23 | 160 | 0.0 | 0.0 | 0.00 | 0.23 | 0.00 | 99 | 1008.9 |
| 20260906070735 | 23 | 160 | 0.0 | 0.0 | 0.00 | 0.23 | 0.00 | 98 | 1008.9 |
| 20260906065703 | 23 | 160 | 0.0 | 0.0 | 0.00 | 0.23 | 0.00 | 99 | 1008.9 |
| 20260906064703 | 23 | 160 | 0.0 | 0.0 | 0.00 | 0.23 | 0.00 | 98 | 1008.9 |
| 20260906063702 | 23 | 160 | 0.0 | 0.0 | 0.00 | 0.23 | 0.00 | 98 | 1009.3 |
| 20260906062701 | 23 | 160 | 0.0 | 0.0 | 0.00 | 0.23 | 0.00 | 98 | 1009.6 |
| 20260906061700 | 23 | 160 | 0.0 | 0.0 | 0.00 | 0.23 | 0.00 | 98 | 1009.6 |
| 20260906060700 | 23 | 160 | 0.0 | 0.0 | 0.00 | 0.23 | 0.00 | 98 | 1009.6 |
| 20260906055627 | 23 | 160 | 0.0 | 0.0 | 0.00 | 0.23 | 0.00 | 98 | 1009.6 |
| 20260906054627 | 23 | 160 | 0.0 | 0.0 | 0.00 | 0.23 | 0.00 | 98 | 1010.0 |
| 20260906053626 | 23 | 160 | 0.0 | 0.0 | 0.00 | 0.23 | 0.00 | 98 | 1010.0 |
| 20260906052553 | 23 | 160 | 0.0 | 0.0 | 0.00 | 0.23 | 0.00 | 98 | 1010.3 |
| 20260906051553 | 24 | 160 | 0.0 | 0.0 | 0.00 | 0.23 | 0.00 | 98 | 1010.3 |
| 20260906050521 | 24 | 160 | 0.0 | 0.0 | 0.00 | 0.23 | 0.00 | 97 | 1010.3 |
| 20260906045520 | 24 | 160 | 0.0 | 0.0 | 0.00 | 0.23 | 0.00 | 97 | 1010.3 |
| 20260906044519 | 24 | 160 | 0.0 | 0.0 | 0.00 | 0.23 | 0.00 | 97 | 1010.7 |
| 20260906043518 | 24 | 160 | 0.0 | 0.0 | 0.00 | 0.23 | 0.00 | 97 | 1010.7 |
| 20260906042517 | 25 | 160 | 0.0 | 0.0 | 0.00 | 0.23 | 0.00 | 97 | 1010.7 |
| 20260906041516 | 25 | 160 | 0.0 | 0.0 | 0.00 | 0.23 | 0.00 | 97 | 1010.7 |
| 20260906040515 | 25 | 160 | 0.0 | 0.0 | 0.00 | 0.23 | 0.00 | 97 | 1010.7 |
| 20260906035514 | 25 | 160 | 0.0 | 0.0 | 0.00 | 0.23 | 0.23 | 97 | 1010.7 |
| 20260906034513 | 25 | 160 | 0.0 | 0.0 | 0.00 | 0.23 | 0.23 | 97 | 1010.7 |
| 20260906033441 | 25 | 160 | 0.0 | 0.0 | 0.00 | 0.23 | 0.23 | 98 | 1010.6 |
| 20260906032440 | 25 | 160 | 0.0 | 0.0 | 0.00 | 0.23 | 0.23 | 97 | 1010.6 |
| 20260906031440 | 25 | 160 | 0.0 | 0.0 | 0.00 | 0.23 | 0.23 | 97 | 1010.6 |
| 20260906030439 | 25 | 160 | 0.0 | 0.0 | 0.00 | 0.23 | 0.23 | 97 | 1010.6 |
| 20260906025438 | 25 | 160 | 0.0 | 0.0 | 0.00 | 0.23 | 0.23 | 97 | 1010.6 |
| 20260906024437 | 25 | 160 | 0.0 | 0.0 | 0.00 | 0.23 | 0.23 | 97 | 1010.6 |
| 20260906023436 | 25 | 160 | 0.0 | 0.0 | 0.00 | 0.23 | 0.23 | 97 | 1010.6 |
| 20260906022435 | 25 | 160 | 0.0 | 1.6 | 0.00 | 0.23 | 0.23 | 97 | 1010.6 |
| 20260906021434 | 25 | 160 | 0.0 | 1.6 | 0.00 | 0.23 | 0.23 | 97 | 1010.6 |
| 20260906020434 | 25 | 160 | 0.0 | 1.6 | 0.00 | 0.23 | 0.23 | 97 | 1010.6 |
| 20260906015433 | 25 | 165 | 0.0 | 3.2 | 0.00 | 0.23 | 0.23 | 97 | 1010.6 |
| 20260906014432 | 25 | 141 | 1.6 | 3.2 | 0.00 | 0.23 | 0.23 | 97 | 1010.6 |
| 20260906013431 | 25 | 163 | 0.0 | 1.6 | 0.00 | 0.23 | 0.23 | 97 | 1010.3 |
| 20260906012358 | 25 | 152 | 0.0 | 1.6 | 0.00 | 0.23 | 0.23 | 97 | 1010.3 |
| 20260906011357 | 25 | 156 | 1.6 | 1.6 | 0.00 | 0.23 | 0.23 | 97 | 1010.3 |
| 20260906010356 | 25 | 135 | 0.0 | 1.6 | 0.00 | 0.25 | 0.23 | 97 | 1009.9 |
| 20260906005355 | 25 | 141 | 0.0 | 1.6 | 0.00 | 0.30 | 0.23 | 97 | 1009.9 |
| 20260906004323 | 25 | 139 | 1.6 | 1.6 | 0.00 | 0.36 | 0.23 | 97 | 1009.9 |
| 20260906003323 | 25 | 134 | 0.0 | 1.6 | 0.00 | 0.41 | 0.23 | 97 | 1009.9 |
| 20260906002321 | 25 | 134 | 0.0 | 1.6 | 0.00 | 0.43 | 0.23 | 97 | 1009.9 |
| 20260906001320 | 25 | 134 | 0.0 | 1.6 | 0.00 | 0.48 | 0.23 | 97 | 1009.9 |
| 20260906000319 | 25 | 134 | 1.6 | 1.6 | 0.00 | 0.53 | 0.23 | 97 | 1009.9 |
| 20260905235319 | 25 | 128 | 0.0 | 1.6 | 0.00 | 0.56 | 0.23 | 97 | 1009.6 |
| 20260905234318 | 25 | 111 | 0.0 | 0.0 | 0.00 | 0.58 | 0.23 | 96 | 1009.9 |
| 20260905233245 | 26 | 111 | 0.0 | 0.0 | 0.00 | 0.58 | 0.23 | 96 | 1009.9 |
| 20260905232244 | 26 | 111 | 0.0 | 1.6 | 0.00 | 0.61 | 0.23 | 95 | 1009.9 |
| 20260905231244 | 26 | 112 | 0.0 | 1.6 | 0.00 | 0.61 | 0.23 | 96 | 1009.9 |
| 20260905230243 | 26 | 108 | 1.6 | 1.6 | 0.00 | 0.61 | 0.23 | 96 | 1009.9 |
| 20260905225242 | 26 | 118 | 1.6 | 1.6 | 0.00 | 0.61 | 0.23 | 95 | 1009.9 |
| 20260905224241 | 26 | 258 | 1.6 | 1.6 | 0.00 | 0.61 | 0.23 | 96 | 1009.9 |
| 20260905223240 | 26 | 159 | 0.0 | 1.6 | 0.00 | 0.64 | 0.23 | 96 | 1009.6 |
| 20260905222239 | 26 | 72 | 1.6 | 3.2 | 0.00 | 0.66 | 0.23 | 96 | 1009.6 |
| 20260905221239 | 26 | 36 | 0.0 | 1.6 | 0.00 | 0.69 | 0.23 | 96 | 1009.6 |
| 20260905220238 | 25 | 36 | 0.0 | 0.0 | 0.03 | 0.69 | 0.23 | 96 | 1009.6 |
| 20260905215205 | 25 | 36 | 0.0 | 1.6 | 0.03 | 0.69 | 0.23 | 96 | 1009.6 |
| 20260905214205 | 25 | 27 | 0.0 | 1.6 | 0.05 | 0.71 | 0.23 | 96 | 1009.6 |
| 20260905213204 | 25 | 49 | 0.0 | 1.6 | 0.08 | 0.79 | 0.23 | 96 | 1009.6 |
| 20260905212203 | 25 | 49 | 1.6 | 1.6 | 0.10 | 0.84 | 0.23 | 96 | 1009.9 |
| 20260905211132 | 25 | 49 | 0.0 | 1.6 | 0.10 | 0.84 | 0.23 | 96 | 1009.9 |
| 20260905210130 | 25 | 48 | 0.0 | 1.6 | 0.08 | 0.81 | 0.20 | 96 | 1010.3 |
| 20260905205130 | 25 | 48 | 0.0 | 1.6 | 0.08 | 0.81 | 0.20 | 96 | 1010.3 |
| 20260905204129 | 25 | 105 | 0.0 | 1.6 | 0.08 | 0.79 | 0.18 | 95 | 1010.6 |
| 20260905203128 | 25 | 118 | 0.0 | 4.8 | 0.08 | 0.76 | 0.15 | 95 | 1010.6 |
| 20260905202127 | 25 | 97 | 0.0 | 6.4 | 0.10 | 0.74 | 0.13 | 94 | 1010.6 |
| 20260905201126 | 25 | 306 | 1.6 | 1.6 | 0.10 | 0.74 | 0.13 | 95 | 1011.0 |
| 20260905200054 | 25 | 4 | 0.0 | 1.6 | 0.10 | 0.74 | 0.13 | 95 | 1010.6 |
| 20260905195053 | 25 | 155 | 0.0 | 3.2 | 0.10 | 0.74 | 0.13 | 94 | 1011.0 |
| 20260905194021 | 25 | 131 | 1.6 | 8.0 | 0.08 | 0.71 | 0.10 | 92 | 1011.3 |
| 20260905193020 | 26 | 267 | 1.6 | 8.0 | 0.05 | 0.69 | 0.08 | 86 | 1011.3 |
| 20260905192019 | 28 | 270 | 1.6 | 8.0 | 0.00 | 0.64 | 0.03 | 82 | 1011.3 |
| 20260905191019 | 30 | 326 | 3.2 | 14.5 | 0.00 | 0.64 | 0.03 | 76 | 1010.6 |
| 20260905190018 | 30 | 309 | 3.2 | 16.1 | 0.00 | 0.64 | 0.03 | 77 | 1010.0 |
| 20260905185017 | 30 | 344 | 3.2 | 16.1 | 0.00 | 0.64 | 0.03 | 75 | 1010.3 |
| 20260905184016 | 32 | 307 | 3.2 | 16.1 | 0.00 | 0.64 | 0.03 | 69 | 1010.3 |
| 20260905183015 | 34 | 270 | 4.8 | 9.7 | 0.00 | 0.64 | 0.03 | 63 | 1010.3 |
| 20260905182014 | 34 | 261 | 1.6 | 11.3 | 0.00 | 0.64 | 0.03 | 66 | 1010.3 |